Regional Weather Roundup
Issued by NWS

Home | Current Version | Previous Version | Graphics & Text | Print | Product List | Glossary On
Versions: 1 2 3 4 5 6 7 8 9 10 11 12 13 14 15 16 17 18 19 20 21 22 23 24 25 26 27 28 29 30 31 32 33 34 35 36 37 38 39 40 41 42 43 44 45 46 47 48 49 50
000
ASUS45 KPSR 130310
RWRAZ

ARIZONA HOURLY REGIONAL WEATHER ROUNDUP
NATIONAL WEATHER SERVICE PHOENIX AZ
800 PM MST FRI FEB 12 2016

NOTE: FAIR INDICATES FEW OR NO CLOUDS BELOW 12,000 FEET WITH NO
SIGNIFICANT WEATHER AND/OR OBSTRUCTIONS TO VISIBILITY.

AZZ001>003-036-130400-
NORTHWEST ARIZONA

CITY           SKY/WX    TMP DP  RH WIND       PRES   REMARKS
BULLHEAD CITY  CLEAR     72  27  18 N8        30.08S
KINGMAN        CLEAR     49  24  37 E6        30.19S
$$

AZZ004>008-015-016-018-130400-
NORTH CENTRAL ARIZONA

CITY           SKY/WX    TMP DP  RH WIND       PRES   REMARKS
GRAND CANYON   CLEAR     34  26  72 NE3       30.34S
WILLIAMS       CLEAR     41  18  38 S8        30.39S
PRESCOTT       CLEAR     51  26  37 S8        30.26R
FLAGSTAFF      CLEAR     36  21  54 CALM      30.37R
PAYSON         CLEAR     54  19  26 CALM      30.29R
PAGE           CLEAR     48  30  49 CALM      30.28S
$$

AZZ009>014-017-130400-
NORTHEAST ARIZONA

CITY           SKY/WX    TMP DP  RH WIND       PRES   REMARKS
WINSLOW        CLEAR     38  17  42 W5        30.28R WCI  34
SAINT JOHNS    CLEAR     46  14  27 CALM      30.29R
WINDOW ROCK    CLEAR     37   0  21 S5        30.37R WCI  33
SHOW LOW       CLEAR     41  18  38 CALM      30.35S
$$

AZZ023-130400-
GREATER PHOENIX AREA

CITY           SKY/WX    TMP DP  RH WIND       PRES   REMARKS
PHOENIX        CLEAR     73  29  19 SW3       30.04R
BUCKEYE        CLEAR     61  32  33 N8        30.07S
LUKE AFB       CLEAR     64  37  36 N3        30.04R
DEER VALLEY    CLEAR     68  30  24 N6        30.06S
SCOTTSDALE     CLEAR     72  31  22 N3        30.08R
MESA-GATEWAY   CLEAR     70  28  21 CALM      30.07R
CHANDLER       CLEAR     70  30  23 CALM      30.06R
$$

AZZ027-028-130400-
SOUTHWEST MARICOPA COUNTY AND PINAL COUNTY

CITY           SKY/WX    TMP DP  RH WIND       PRES   REMARKS
CASA GRANDE    CLEAR     59  28  31 N3        30.07S
GILA BEND      FAIR      67  31  26 SE3       30.04R
$$

AZZ503-504-507>509-130400-
SOUTHEAST ARIZONA

CITY           SKY/WX    TMP DP  RH WIND       PRES   REMARKS
TUCSON         PTCLDY    68  22  17 W7        30.12R
DAVIS-MONTHAN  CLEAR     68  23  18 NW10      30.10R
RYAN FIELD     CLEAR     70  27  19 W7        30.12R
NOGALES        MOCLDY    66  10  11 NW3       30.17R
SIERRA VISTA   MOCLDY    61   8  12 S10       30.23R
DOUGLAS        PTCLDY    56   5  13 E13       30.20S
SAFFORD        CLEAR     56  21  25 E7        30.16R
$$

AZZ020-021-025-026-031-130400-
SOUTHWEST ARIZONA

CITY           SKY/WX    TMP DP  RH WIND       PRES   REMARKS
YUMA           PTCLDY    73  26  17 NW5       30.02S
$$

CAZ031-033-041-043-047-048-061-130400-
SOUTHERN CALIFORNIA

CITY           SKY/WX    TMP DP  RH WIND       PRES   REMARKS
DOWNTOWN L.A.  CLEAR     65  47  52 W3        30.05R
L.A. AIRPORT   PTCLDY    61  55  81 W7        30.06R
SAN DIEGO      PTCLDY    66  52  60 NW3       30.08R
BURBANK        CLEAR     72  37  28 CALM      30.06R
ONTARIO        PTCLDY    71  38  29 W6        30.06R
RIVERSIDE      CLEAR     72  38  29 CALM      30.06R
PALM SPRINGS   CLEAR     72  30  21 N8        30.07R
EL CENTRO NAS  PTCLDY    66  30  26 SW7       30.04R
IMPERIAL       CLEAR     70  32  24 CALM      30.02R
BLYTHE         CLEAR     67  30  25 NW3       30.05R
NEEDLES        CLEAR     69  24  18 NW7       30.08R
$$

NVZ020-UTZ003-130400-
SOUTHERN NEVADA-UTAH

CITY           SKY/WX    TMP DP  RH WIND       PRES   REMARKS
LAS VEGAS      PTCLDY    67  24  19 SW3       30.11S
SALT LAKE CITY CLOUDY    30  28  92 CALM      30.33F FOG
$$

NMZ009-TXZ055-130400-
NEW MEXICO-WEST TEXAS

CITY           SKY/WX    TMP DP  RH WIND       PRES   REMARKS
ALBUQUERQUE    CLEAR     54  19  25 NE6       30.31R
EL PASO        PTCLDY    61  17  18 NW5       30.24S
$$


........................KEY........................
SKY/WX - SKY CONDITION/WEATHER
TMP    - TEMPERATURE IN FAHRENHEIT
DP     - DEW POINT IN FAHRENHEIT
RH     - RELATIVE HUMIDITY IN PERCENT
WIND   - DIRECTION AND SPEED IN MILES PER HOUR (MPH)
VRB    - VARIABLE WIND DIRECTION
PRES   - MEAN SEA LEVEL PRESSURE IN INCHES OF MERCURY
         F - FALLING PRESSURE   R - RISING PRESSURE
         S - STEADY PRESSURE
VSB    - VISIBILITY IN MILES
HX     - HEAT INDEX IN FAHRENHEIT
WCI    - WIND CHILL INDEX IN FAHRENHEIT
TC     - TEMPERATURE IN CELSIUS WHICH IS ALSO KNOWN AS
         TEMPERATURE IN CENTIGRADE
AFB    - AIR FORCE BASE
         LUKE AFB IS LUKE AIR FORCE BASE
         DAVIS-MONTHAN IS DAVIS-MONTHAN AIR FORCE BASE
NAS    - NAVAL AIR STATION
         EL CENTRO NAS IS EL CENTRO NAVAL AIR STATION
N/A    - NOT AVAILABLE




USA.gov is the U.S. government's official web portal to all federal, state and local government web resources and services.